| time (UTC) | temp C | wind direction | speed KPH | gust KPH | rain 1hr cm | rain 24hr cm | rain mn cm | humidity % | barometer mb |
| 20260504233527 | 8 | 316 | 9.7 | 22.5 | 0.00 | 0.00 | 0.00 | 42 | 1004.4 |
| 20260504233041 | 8 | 328 | 11.3 | 29.0 | 0.00 | 0.00 | 0.00 | 42 | 1004.4 |
| 20260504232530 | 8 | 275 | 11.3 | 29.0 | 0.00 | 0.00 | 0.00 | 42 | 1004.4 |
| 20260504232028 | 8 | 296 | 12.9 | 29.0 | 0.00 | 0.00 | 0.00 | 43 | 1004.3 |
| 20260504231539 | 8 | 336 | 11.3 | 37.0 | 0.00 | 0.00 | 0.00 | 43 | 1004.3 |
| 20260504231028 | 8 | 285 | 12.9 | 37.0 | 0.00 | 0.00 | 0.00 | 44 | 1004.3 |
| 20260504230528 | 8 | 279 | 16.1 | 35.4 | 0.00 | 0.00 | 0.00 | 44 | 1004.3 |
| 20260504230048 | 8 | 332 | 16.1 | 35.4 | 0.00 | 0.00 | 0.00 | 43 | 1004.3 |
| 20260504225528 | 8 | 340 | 19.3 | 35.4 | 0.00 | 0.00 | 0.00 | 43 | 1004.3 |
| 20260504225028 | 8 | 42 | 12.9 | 33.8 | 0.00 | 0.00 | 0.00 | 43 | 1004.2 |
| 20260504224536 | 9 | 296 | 16.1 | 33.8 | 0.00 | 0.00 | 0.00 | 43 | 1004.2 |
| 20260504224028 | 9 | 338 | 11.3 | 25.7 | 0.00 | 0.00 | 0.00 | 44 | 1004.1 |
| 20260504223528 | 9 | 292 | 12.9 | 33.8 | 0.00 | 0.00 | 0.00 | 43 | 1003.9 |
| 20260504223042 | 9 | 275 | 16.1 | 37.0 | 0.00 | 0.00 | 0.00 | 43 | 1003.8 |
| 20260504222529 | 9 | 294 | 17.7 | 37.0 | 0.00 | 0.00 | 0.00 | 42 | 1003.8 |
| 20260504222028 | 9 | 272 | 16.1 | 32.2 | 0.00 | 0.00 | 0.00 | 42 | 1003.7 |
| 20260504221553 | 10 | 329 | 12.9 | 29.0 | 0.00 | 0.00 | 0.00 | 42 | 1003.7 |
| 20260504221028 | 10 | 299 | 11.3 | 45.1 | 0.00 | 0.00 | 0.00 | 42 | 1003.5 |
| 20260504220530 | 10 | 285 | 14.5 | 45.1 | 0.00 | 0.00 | 0.00 | 41 | 1003.5 |
| 20260504220040 | 10 | 279 | 14.5 | 35.4 | 0.00 | 0.00 | 0.00 | 41 | 1003.5 |
| 20260504215528 | 10 | 316 | 19.3 | 35.4 | 0.00 | 0.00 | 0.00 | 41 | 1003.3 |
| 20260504215027 | 10 | 317 | 19.3 | 35.4 | 0.00 | 0.00 | 0.00 | 41 | 1003.2 |
| 20260504214537 | 10 | 279 | 16.1 | 35.4 | 0.00 | 0.00 | 0.00 | 40 | 1003.2 |
| 20260504214028 | 10 | 297 | 14.5 | 30.6 | 0.00 | 0.00 | 0.00 | 40 | 1003.0 |
| 20260504213528 | 10 | 330 | 12.9 | 30.6 | 0.00 | 0.00 | 0.00 | 41 | 1003.1 |
| 20260504213043 | 10 | 349 | 11.3 | 27.4 | 0.00 | 0.00 | 0.00 | 41 | 1002.9 |
| 20260504212528 | 10 | 12 | 12.9 | 33.8 | 0.00 | 0.00 | 0.00 | 40 | 1002.9 |
| 20260504212027 | 10 | 292 | 16.1 | 35.4 | 0.00 | 0.00 | 0.00 | 41 | 1002.9 |
| 20260504211547 | 10 | 311 | 14.5 | 35.4 | 0.00 | 0.00 | 0.00 | 41 | 1002.8 |
| 20260504211027 | 10 | 202 | 12.9 | 29.0 | 0.00 | 0.00 | 0.00 | 40 | 1002.8 |
| 20260504210528 | 10 | 269 | 11.3 | 30.6 | 0.00 | 0.00 | 0.00 | 40 | 1002.8 |
| 20260504210047 | 11 | 279 | 12.9 | 37.0 | 0.00 | 0.00 | 0.00 | 41 | 1002.7 |
| 20260504205528 | 11 | 289 | 17.7 | 37.0 | 0.00 | 0.00 | 0.00 | 41 | 1002.8 |
| 20260504205029 | 10 | 284 | 16.1 | 37.0 | 0.00 | 0.00 | 0.00 | 41 | 1002.8 |
| 20260504204540 | 11 | 319 | 16.1 | 37.0 | 0.00 | 0.00 | 0.00 | 39 | 1002.7 |
| 20260504204029 | 11 | 279 | 16.1 | 37.0 | 0.00 | 0.00 | 0.00 | 39 | 1002.5 |
| 20260504203529 | 11 | 276 | 17.7 | 30.6 | 0.00 | 0.00 | 0.00 | 40 | 1002.6 |
| 20260504203038 | 11 | 271 | 16.1 | 38.6 | 0.00 | 0.00 | 0.00 | 40 | 1002.6 |
| 20260504202528 | 11 | 344 | 16.1 | 38.6 | 0.00 | 0.00 | 0.00 | 41 | 1002.5 |
| 20260504202028 | 11 | 341 | 12.9 | 30.6 | 0.00 | 0.00 | 0.00 | 42 | 1002.4 |
| 20260504201544 | 11 | 336 | 12.9 | 27.4 | 0.00 | 0.00 | 0.00 | 41 | 1002.5 |
| 20260504201028 | 11 | 32 | 14.5 | 27.4 | 0.00 | 0.00 | 0.00 | 43 | 1002.4 |
| 20260504200528 | 11 | 302 | 9.7 | 27.4 | 0.00 | 0.00 | 0.00 | 44 | 1002.4 |
| 20260504200042 | 11 | 291 | 14.5 | 33.8 | 0.00 | 0.00 | 0.00 | 44 | 1002.4 |
| 20260504195527 | 11 | 308 | 9.7 | 33.8 | 0.00 | 0.00 | 0.00 | 45 | 1002.4 |
| 20260504195028 | 11 | 285 | 11.3 | 38.6 | 0.00 | 0.00 | 0.00 | 43 | 1002.2 |
| 20260504194540 | 11 | 298 | 14.5 | 40.2 | 0.00 | 0.00 | 0.00 | 42 | 1002.4 |
| 20260504194028 | 11 | 293 | 14.5 | 40.2 | 0.00 | 0.00 | 0.00 | 42 | 1002.3 |
| 20260504193527 | 11 | 286 | 11.3 | 27.4 | 0.00 | 0.00 | 0.00 | 43 | 1002.1 |
| 20260504193041 | 11 | 281 | 14.5 | 27.4 | 0.00 | 0.00 | 0.00 | 42 | 1001.9 |
| 20260504192529 | 11 | 269 | 12.9 | 33.8 | 0.00 | 0.00 | 0.00 | 42 | 1001.8 |
| 20260504192028 | 11 | 222 | 12.9 | 33.8 | 0.00 | 0.00 | 0.00 | 41 | 1001.7 |
| 20260504191541 | 12 | 274 | 12.9 | 33.8 | 0.00 | 0.00 | 0.00 | 40 | 1001.7 |
| 20260504191028 | 12 | 298 | 12.9 | 37.0 | 0.00 | 0.00 | 0.00 | 41 | 1001.8 |
| 20260504190540 | 12 | 321 | 17.7 | 37.0 | 0.00 | 0.00 | 0.00 | 43 | 1001.7 |
| 20260504190046 | 12 | 329 | 12.9 | 38.6 | 0.00 | 0.00 | 0.00 | 43 | 1001.7 |
| 20260504185528 | 12 | 43 | 12.9 | 45.1 | 0.00 | 0.00 | 0.00 | 42 | 1001.7 |
| 20260504185027 | 12 | 317 | 16.1 | 45.1 | 0.00 | 0.00 | 0.00 | 40 | 1001.5 |
| 20260504184542 | 12 | 294 | 12.9 | 29.0 | 0.00 | 0.00 | 0.00 | 40 | 1001.3 |
| 20260504184029 | 13 | 319 | 9.7 | 27.4 | 0.00 | 0.00 | 0.00 | 41 | 1001.2 |
| 20260504183528 | 13 | 352 | 9.7 | 25.7 | 0.00 | 0.00 | 0.00 | 41 | 1001.2 |
| 20260504183041 | 13 | 310 | 12.9 | 29.0 | 0.00 | 0.00 | 0.00 | 40 | 1001.0 |
| 20260504182528 | 12 | 29 | 9.7 | 43.5 | 0.00 | 0.00 | 0.00 | 40 | 1001.0 |
| 20260504182028 | 12 | 298 | 14.5 | 43.5 | 0.00 | 0.00 | 0.00 | 41 | 1001.0 |
| 20260504181542 | 12 | 286 | 17.7 | 30.6 | 0.00 | 0.00 | 0.00 | 42 | 1001.2 |
| 20260504181030 | 12 | 334 | 16.1 | 30.6 | 0.00 | 0.00 | 0.00 | 41 | 1000.7 |
| 20260504180529 | 13 | 305 | 16.1 | 32.2 | 0.00 | 0.00 | 0.00 | 41 | 1000.7 |
| 20260504180050 | 12 | 296 | 16.1 | 32.2 | 0.00 | 0.00 | 0.00 | 42 | 1000.8 |
| 20260504175528 | 12 | 288 | 12.9 | 27.4 | 0.00 | 0.00 | 0.00 | 43 | 1000.7 |
| 20260504175028 | 12 | 351 | 14.5 | 32.2 | 0.00 | 0.00 | 0.00 | 42 | 1000.6 |
| 20260504174543 | 12 | 327 | 16.1 | 35.4 | 0.00 | 0.00 | 0.00 | 43 | 1000.5 |
| 20260504174030 | 12 | 328 | 16.1 | 35.4 | 0.00 | 0.00 | 0.00 | 42 | 1000.4 |
| 20260504173527 | 12 | 342 | 17.7 | 43.5 | 0.00 | 0.00 | 0.00 | 43 | 1000.5 |
| 20260504173050 | 12 | 300 | 19.3 | 43.5 | 0.00 | 0.00 | 0.00 | 43 | 1000.4 |
| 20260504172531 | 12 | 275 | 16.1 | 33.8 | 0.00 | 0.00 | 0.00 | 44 | 1000.5 |
| 20260504172027 | 12 | 286 | 16.1 | 27.4 | 0.00 | 0.00 | 0.00 | 45 | 1000.3 |
| 20260504171541 | 12 | 318 | 12.9 | 33.8 | 0.00 | 0.00 | 0.00 | 44 | 1000.3 |
| 20260504171028 | 12 | 302 | 14.5 | 33.8 | 0.00 | 0.00 | 0.00 | 45 | 1000.3 |
| 20260504170527 | 12 | 288 | 12.9 | 33.8 | 0.00 | 0.00 | 0.00 | 45 | 1000.3 |
| 20260504151027 | 12 | 305 | 14.5 | 33.8 | 0.00 | 0.00 | 0.00 | 47 | 998.3 |
| 20260504150528 | 12 | 326 | 16.1 | 37.0 | 0.00 | 0.00 | 0.00 | 48 | 998.3 |
| 20260504141027 | 12 | 277 | 14.5 | 40.2 | 0.00 | 0.00 | 0.00 | 55 | 998.3 |
| 20260504140528 | 12 | 339 | 17.7 | 41.8 | 0.00 | 0.00 | 0.00 | 55 | 998.2 |
| 20260504130528 | 11 | 331 | 11.3 | 25.7 | 0.00 | 0.00 | 0.00 | 57 | 997.9 |
| 20260504110529 | 12 | 275 | 8.0 | 25.7 | 0.00 | 0.00 | 0.00 | 55 | 995.9 |
| 20260504100529 | 14 | 252 | 9.7 | 27.4 | 0.00 | 0.00 | 0.00 | 43 | 994.9 |
| 20260504081544 | 15 | 179 | 14.5 | 27.4 | 0.00 | 0.00 | 0.00 | 36 | 995.3 |
| 20260504081026 | 15 | 100 | 9.7 | 35.4 | 0.00 | 0.00 | 0.00 | 36 | 995.6 |
| 20260504080526 | 15 | 186 | 12.9 | 38.6 | 0.00 | 0.00 | 0.00 | 35 | 995.7 |
| 20260504050529 | 15 | 236 | 9.7 | 22.5 | 0.00 | 0.00 | 0.00 | 39 | 999.3 |
| 20260504045528 | 15 | 181 | 9.7 | 25.7 | 0.00 | 0.00 | 0.00 | 39 | 999.6 |
| 20260504045028 | 15 | 181 | 9.7 | 25.7 | 0.00 | 0.00 | 0.00 | 38 | 999.7 |
| 20260504044537 | 15 | 225 | 9.7 | 17.7 | 0.00 | 0.00 | 0.00 | 38 | 999.7 |
| 20260504044028 | 15 | 186 | 9.7 | 17.7 | 0.00 | 0.00 | 0.00 | 39 | 999.8 |
| 20260504043527 | 15 | 223 | 9.7 | 22.5 | 0.00 | 0.00 | 0.00 | 38 | 1000.0 |
| 20260504043035 | 15 | 179 | 8.0 | 22.5 | 0.00 | 0.00 | 0.00 | 40 | 1000.1 |
| 20260504042529 | 15 | 193 | 6.4 | 16.1 | 0.00 | 0.00 | 0.00 | 40 | 1000.2 |
| 20260504042030 | 15 | 206 | 6.4 | 17.7 | 0.00 | 0.00 | 0.00 | 39 | 1000.4 |
| 20260504041543 | 15 | 215 | 8.0 | 20.9 | 0.00 | 0.00 | 0.00 | 39 | 1000.4 |
| 20260504041027 | 15 | 175 | 6.4 | 20.9 | 0.00 | 0.00 | 0.00 | 40 | 1000.6 |
| 20260504040529 | 15 | 213 | 8.0 | 17.7 | 0.00 | 0.00 | 0.00 | 40 | 1000.8 |
| 20260504040049 | 14 | 201 | 6.4 | 12.9 | 0.00 | 0.00 | 0.00 | 40 | 1000.9 |
| 20260504035532 | 14 | 205 | 6.4 | 14.5 | 0.00 | 0.00 | 0.00 | 40 | 1001.0 |
| 20260504035029 | 14 | 196 | 6.4 | 16.1 | 0.00 | 0.00 | 0.00 | 40 | 1001.1 |
| 20260504034541 | 14 | 200 | 6.4 | 16.1 | 0.00 | 0.00 | 0.00 | 40 | 1001.2 |
| 20260504034029 | 14 | 213 | 8.0 | 14.5 | 0.00 | 0.00 | 0.00 | 39 | 1001.4 |
| 20260504033529 | 14 | 181 | 6.4 | 12.9 | 0.00 | 0.00 | 0.00 | 39 | 1001.5 |
| 20260504033043 | 15 | 195 | 6.4 | 12.9 | 0.00 | 0.00 | 0.00 | 39 | 1001.6 |
| 20260504032528 | 15 | 185 | 6.4 | 12.9 | 0.00 | 0.00 | 0.00 | 40 | 1001.8 |
| 20260504032028 | 15 | 182 | 4.8 | 16.1 | 0.00 | 0.00 | 0.00 | 40 | 1002.0 |
| 20260504031546 | 15 | 205 | 4.8 | 16.1 | 0.00 | 0.00 | 0.00 | 40 | 1002.2 |
| 20260504031029 | 15 | 185 | 6.4 | 11.3 | 0.00 | 0.00 | 0.00 | 40 | 1002.2 |
| 20260504030526 | 14 | 190 | 4.8 | 11.3 | 0.00 | 0.00 | 0.00 | 43 | 1002.3 |
| 20260504030043 | 14 | 165 | 4.8 | 11.3 | 0.00 | 0.00 | 0.00 | 46 | 1002.4 |
| 20260504025525 | 14 | 204 | 3.2 | 8.0 | 0.00 | 0.00 | 0.00 | 46 | 1002.5 |
| 20260504025024 | 14 | 193 | 3.2 | 8.0 | 0.00 | 0.00 | 0.00 | 48 | 1002.6 |
| 20260504024547 | 15 | 206 | 3.2 | 6.4 | 0.00 | 0.00 | 0.00 | 46 | 1002.6 |
| 20260504024026 | 15 | 179 | 3.2 | 8.0 | 0.00 | 0.00 | 0.00 | 45 | 1002.7 |
| 20260504023525 | 15 | 174 | 3.2 | 8.0 | 0.00 | 0.00 | 0.00 | 44 | 1002.7 |
| 20260504023038 | 15 | 175 | 4.8 | 8.0 | 0.00 | 0.00 | 0.00 | 40 | 1002.8 |
| 20260504022525 | 15 | 191 | 3.2 | 8.0 | 0.00 | 0.00 | 0.00 | 43 | 1002.9 |
| 20260504022026 | 15 | 182 | 1.6 | 6.4 | 0.00 | 0.00 | 0.00 | 48 | 1003.0 |
| 20260504021544 | 15 | 186 | 1.6 | 6.4 | 0.00 | 0.00 | 0.00 | 48 | 1002.9 |
| 20260504021026 | 16 | 163 | 3.2 | 6.4 | 0.00 | 0.00 | 0.00 | 40 | 1003.1 |
| 20260504020524 | 16 | 188 | 3.2 | 6.4 | 0.00 | 0.00 | 0.00 | 35 | 1003.0 |
| 20260504020044 | 16 | 183 | 1.6 | 4.8 | 0.00 | 0.00 | 0.00 | 34 | 1003.1 |
| 20260504015527 | 16 | 0 | 1.6 | 6.4 | 0.00 | 0.00 | 0.00 | 34 | 1003.1 |
| 20260504015025 | 16 | 225 | 1.6 | 6.4 | 0.00 | 0.00 | 0.00 | 33 | 1003.1 |
| 20260504014541 | 17 | 211 | 0.0 | 6.4 | 0.00 | 0.00 | 0.00 | 33 | 1003.2 |
| 20260504014025 | 17 | 220 | 1.6 | 6.4 | 0.00 | 0.00 | 0.00 | 32 | 1003.2 |
| 20260504013526 | 17 | 0 | 1.6 | 6.4 | 0.00 | 0.00 | 0.00 | 32 | 1003.3 |
| 20260504013042 | 17 | 184 | 1.6 | 6.4 | 0.00 | 0.00 | 0.00 | 32 | 1003.3 |
| 20260504012525 | 17 | 229 | 0.0 | 4.8 | 0.00 | 0.00 | 0.00 | 31 | 1003.4 |
| 20260504012025 | 17 | 191 | 1.6 | 4.8 | 0.00 | 0.00 | 0.00 | 31 | 1003.4 |
| 20260504011537 | 18 | 0 | 1.6 | 9.7 | 0.00 | 0.00 | 0.00 | 31 | 1003.5 |
| 20260504011027 | 18 | 202 | 1.6 | 9.7 | 0.00 | 0.00 | 0.00 | 30 | 1003.4 |
| 20260504010527 | 18 | 213 | 1.6 | 9.7 | 0.00 | 0.00 | 0.00 | 30 | 1003.5 |
| 20260504010036 | 18 | 266 | 1.6 | 12.9 | 0.00 | 0.00 | 0.00 | 29 | 1003.6 |
| 20260504005527 | 18 | 262 | 1.6 | 17.7 | 0.00 | 0.00 | 0.00 | 28 | 1003.6 |
| 20260504005026 | 18 | 282 | 4.8 | 17.7 | 0.00 | 0.00 | 0.00 | 28 | 1003.7 |
| 20260504004544 | 19 | 275 | 6.4 | 17.7 | 0.00 | 0.00 | 0.00 | 28 | 1003.6 |
| 20260504004024 | 19 | 293 | 8.0 | 17.7 | 0.00 | 0.00 | 0.00 | 27 | 1003.8 |
| 20260504003525 | 19 | 263 | 3.2 | 19.3 | 0.00 | 0.00 | 0.00 | 27 | 1003.8 |
| 20260504003048 | 20 | 305 | 8.0 | 19.3 | 0.00 | 0.00 | 0.00 | 27 | 1003.8 |
| 20260504002527 | 20 | 193 | 6.4 | 19.3 | 0.00 | 0.00 | 0.00 | 27 | 1003.8 |
| 20260504002026 | 20 | 281 | 8.0 | 19.3 | 0.00 | 0.00 | 0.00 | 27 | 1003.9 |
| 20260504001543 | 20 | 273 | 4.8 | 14.5 | 0.00 | 0.00 | 0.00 | 27 | 1004.0 |
| 20260504001025 | 20 | 244 | 4.8 | 20.9 | 0.00 | 0.00 | 0.00 | 27 | 1003.9 |
| 20260504000528 | 20 | 286 | 11.3 | 20.9 | 0.00 | 0.00 | 0.00 | 26 | 1003.9 |
| 20260504000106 | 20 | 263 | 9.7 | 20.9 | 0.00 | 0.00 | 0.00 | 25 | 1003.9 |
| 20260503235525 | 20 | 319 | 8.0 | 20.9 | 0.00 | 0.00 | 0.00 | 25 | 1004.0 |
| 20260503235027 | 20 | 292 | 11.3 | 22.5 | 0.00 | 0.00 | 0.00 | 25 | 1003.9 |
| 20260503234547 | 20 | 262 | 8.0 | 22.5 | 0.00 | 0.00 | 0.00 | 25 | 1004.1 |
| 20260503234027 | 20 | 304 | 9.7 | 25.7 | 0.00 | 0.00 | 0.00 | 24 | 1004.3 |